LiveATC.Net - Listen to live air traffic control over the Internet! Contact for advertising information

ICAO: KARR  IATA: ARR   Airport: Aurora Municipal Airport
City: Chicago/Aurora   State/Province: Illinois
Country: United States   Continent: North America
KARR METAR Weather: KARR 011052Z AUTO 24008KT 5SM BR BKN007 BKN014 OVC019 06/05 A2982 RMK AO2 CIG 005V009 SLP101 T00610050
KARR Flight Activity (FlightAware)
KARR Airport Info   (AirNav) (iFlightPlanner)
KARR VFR Sectional Chart   (iFlightPlanner) 
KARR IFR Low Chart   (iFlightPlanner) 
KARR Tower
Feed Status: UP   Listeners: 2
Listen right in your browser - requires Flash (in browser, requires Flash)
Click here to listen with your own player (launches your MP3 player)
KARR Tower Audio Archives
Aurora Tower120.600


Unauthorized use prohibited. See Terms of Service

Find LiveATC Audio Streams

Airport/ARTCC Code

(e.g., 124.400, 128.75)
Site-wide search

Browse LiveATC Feeds
LiveATC Coverage Map
Top 50 LiveATC Feeds
Bad Weather Areas

Offer a LiveATC Feed
Press Inquiries

LiveATC on iPhone
LiveATC on Android

Windows Phone
Windows 8/10

LiveATC Mobile
(Mobile browser)

ATC Audio Archives
Interesting Recordings

LiveATC Forums

Home Page
Make a Donation
LiveATC Bookstore

Terms of Use
Privacy Policy

ATC/Radar Sites
U.S. ARTCC Freqs
Canadian Air Freqs


FAA Airport Status
Nat'l Airspace Status
Arrival Demand Charts

Server Software By:

Please make a donation to help us keep growing!